Terminal Aerodrome Forecast
Issued by NWS Rapid City, SD

Home | Current Version | Previous Version | Text Only | Print | Product List | Glossary Off
Versions: 1 2 3 4 5 6 7 8 9 10 11 12 13 14 15 16

000
FTUS43 KUNR 170532 CCA
TAFRAP
TAF COR
KRAP 170532Z 1706/1806 32005KT P6SM SCT250 WS020/21035KT
     FM171200 32010KT P6SM SCT250
     FM171600 33018KT P6SM SCT250
     FM172100 33007KT P6SM SCT250=

USA.gov is the U.S. government's official web portal to all federal, state and local government web resources and services.